www.pogodaiklimat.ru
ПОГОДА в Тлашкала аэропорту
Время
(UTC), дата
18 18.01
21 18.01
00 19.01
03 19.01
06 19.01
12 19.01
15 19.01
18 19.01
21 19.01
00 20.01
03 20.01
06 20.01
12 20.01
15 20.01
18 20.01
21 20.01
00 21.01
03 21.01
06 21.01
12 21.01
15 21.01
18 21.01
21 21.01
00 22.01
03 22.01
06 22.01
12 22.01
15 22.01
18 22.01
21 22.01
00 23.01
03 23.01
06 23.01
12 23.01
15 23.01
18 23.01
21 23.01
00 24.01
03 24.01
06 24.01
12 24.01
15 24.01
18 24.01
21 24.01
00 25.01
03 25.01
06 25.01
Ветер
(напр.,м/с)
Видим. Явления Облачность Т
(С)
Тd
(С)
f
(%)
Тe
(С)
Тes
(С)
Комфортность P
(гПа)
Po
(гПа)
Тmin
(С)
Tmax
(С)
R
(мм)
R24
(мм)
S
(см)
В 2 10 км мгла {туман} 9/6 1050 м
[Sc Ac und]
+20.1 +6.5 41 +22 +24 комфорт 1018.3 784.4 +7.4 +21.1
ЮВ 4 10 км 9/5 1050 м
[Cu med, cong Ac und]
+19.6 +6.3 42 +20 +21 1013.5 782.5
СВ 3 10 км слаб. морось 8/1 870 м
[Cb cap Ac As]
+15.4 +4.8 49 +15 +15 1013.8 784.0 +7.4 +22.9 0.0 0.0
СЗ 1 8000 м в посл. час морось 9/4 700 м
[Cu Sc Ac und]
+13.8 +8.2 69 +14 +14 1014.1 785.3 0.0
СЗ 2 6000 м 1/0
[Ac trans]
+12.2 +8.2 77 +11 +11 1015.3 785.4 +22.9
С 1 12 км ясно +10.8 +8.8 87 +10 +10 1017.7 785.2 +10.0 +22.9 0.0
СВ 3 22 км 9/3 720 м
[Sc diur, vesp Cs]
+14.4 +9.6 73 +14 +15 1020.7 786.7
СВ 4 22 км 6/4 900 м
[Cu med, cong Ci sp]
+19.2 +10.8 58 +20 +25 1019.3 786.5 +9.5 +20.4
СВ 5 18 км 9/3 800 м
[Cb cap Ac As]
+16.6 +10.1 65 +16 +17 1015.9 784.9
СВ 3 15 км слаб. морось 10/5 700 м
[Frnb Ac As]
+14.1 +9.4 73 +13 +13 1016.0 785.7 +9.5 +20.6 0.0 0.0
СВ 3 8000 м слаб. морось 8/4 600 м
[Frnb Ac As]
+11.8 +7.8 76 +10 +10 1017.5 786.9 2
СВ 3 6000 м в посл. час морось 6/3 570 м
[Frnb Ac As]
+11.4 +7.7 78 +10 +10 1019.1 787.1 +9.5 +20.6 2
С 3 8000 м 5/1 540 м
[St Ac und]
+10.5 +8.3 86 +8 +8 1020.4 787.1 +10.1 +20.6
С 4 20 км 9/1 660 м
[Sc diur, vesp Ac und Cs]
+12.5 +6.5 67 +11 +12 1023.6 788.6
СВ 4 18 км 9/3 800 м
[Cu med, cong Ac As]
+14.9 +6.0 55 +14 +16 1023.0 788.4 +9.7 +15.7
СВ 3 15 км {морось} 10/5 720 м
[Frnb Ac As]
+13.6 +6.4 62 +13 +14 1020.5 787.1 0.1
СВ 3 18 км {морось} 6/3 570 м
[Cb cap Ac und]
+11.0 +7.8 81 +9 +9 1020.3 787.0 +9.7 +16.5 0.2 0.3
С 2 13 км ясно +8.6 +4.6 76 +7 +7 1022.7 788.5
С 2 12 км ясно +6.8 +4.6 86 +5 +5 1024.2 788.4 +16.5
СВ 1 12 км ясно +3.5 +2.9 96 +2 +2 1022.9 786.9 +2.1 +16.5 0.3
СВ 4 15 км 3/3 420 м
[St]
+7.3 +3.5 77 +4 +6 1027.6 788.5
В 2 22 км 1/1 800 м
[Cu med, cong]
+14.4 +5.6 55 +14 +26 опасность
простуды
1027.5 788.2 +2.1 +15.2
ЮВ 2 18 км 5/5 960 м
[Cu hum]
+18.6 +7.0 47 +19 +24 1019.9 784.6
Ю 2 18 км 4/4 930 м
[Cu hum]
+17.4 +6.5 49 +18 +18 1015.8 783.9 +2.1 +20.4
СЗ 1 13 км 1/1 900 м
[Cu hum]
+11.4 +5.8 68 +11 +11 1015.8 785.4
СЗ 2 12 км ясно +7.0 +4.4 84 +5 +5 1017.1 785.8 +20.4
В 2 16 км ясно +4.3 +3.3 93 +1 +1 1018.8 784.0 +3.8 +20.4
В 1 4000 м дым {туман} 1/1 480 м
[Cu hum]
+7.5 +2.3 70 +7 +11 1022.5 784.8
Ю 2 6000 м мгла {туман} 1/1 1110 м
[Cu hum]
+18.9 +3.2 35 +20 +32 1019.4 783.0 +3.7 +20.5
Ю 4 6000 м мгла {туман} 3/1 1140 м
[Cu hum Ci fib]
+21.6 +6.3 37 +22 +27 комфорт 1012.7 780.6
Ю 1 6000 м мгла {туман} 4/0
[Ac trans Ci fib]
+17.8 +5.6 45 +19 +19 1009.9 781.0 +3.7 +23.2
З 1 6000 м ясно +13.6 +6.0 60 +14 +14 1010.0 782.6
З 1 5000 м 1/1 930 м
[Cu hum]
+10.2 +5.6 73 +10 +10 1010.8 782.4 +23.2
штиль 0 5000 м мгла 3/1 330 м
[St Ci fib]
+5.5 +3.8 89 +4 +4 1014.9 781.6 +5.2 +23.2
ЮВ 1 4000 м мгла {туман} 5/0
[Ac und]
+10.9 +4.4 64 +11 +14 1018.6 782.9
В 1 3000 м мгла {туман} 10/1 930 м
[Cu hum Ac und Cs]
+17.5 +6.4 48 +19 +26 1017.0 782.3 +5.2 +18.4
Ю 2 3000 м мгла {туман} 9/4 960 м
[Cb calv Ac As]
+19.3 +8.6 50 +21 +23 комфорт 1011.6 780.1
В 3 3000 м мгла {туман} 10/4 750 м
[Cb cap Ac As]
+14.5 +7.5 63 +14 +14 1009.9 780.5 +5.2 +21.5
СВ 4 5000 м 10/8 660 м
[Frnb Ac As]
+12.8 +8.2 74 +11 +11 1011.3 782.5
С 2 6000 м 6/4 630 м
[Cu med, cong Cs]
+12.4 +8.1 75 +12 +12 1011.9 782.4 +5.2 +21.5
СВ 1 5000 м мгла 6/0 2000 м
[Ac trans Cs]
+10.9 +8.4 85 +11 +11 1014.0 782.4 +10.4 +21.5
СЗ 1 4000 м мгла {туман} 10/0
[As trans]
+12.9 +8.1 73 +13 +15 1017.1 783.9
Ю 2 4000 м мгла {туман} 10/1 840 м
[Cu med, cong As trans Cs]
+16.6 +8.3 58 +17 +23 1016.6 784.0 +10.4 +16.7
ЮВ 2 6000 м мгла {туман} 9/5 1000 м
[Cu med, cong Ac und Cs]
+18.8 +6.5 45 +20 +22 1011.7 781.4
Ю 2 12 км мгла {туман} 5/3 1050 м
[Cu med, cong Ac trans]
+18.6 +4.9 40 +19 +19 1009.7 781.1 +10.4 +20.1
С 1 8000 м ясно +12.4 +7.7 73 +13 +13 1012.2 783.5
С 1 6000 м ясно +9.8 +6.7 81 +9 +9 1013.7 783.8 +20.1
Местоположение метеостанции Тлашкала аэропорт (Мексика): широта 19.31 долгота -98.24 высота над уровнем моря 2282 м.
В архиве по умолчанию представлена погода в Тлашкала аэропорту за последнюю неделю. Архивные данные за месяц целиком и за предыдущие месяцы, начиная с января 2011 года, Вы можете получить, выбрав интересующий диапазон дат из раскрывающегося списка и нажав кнопку "Найти!".
*Определитесь, кто Вы:
Внимание! Время в таблицах - всемирное. Для получения местного времени необходимо прибавить поправку, которая равна -6 ч.
Смотрите также архив погоды в соседних городах и на ближайших метеорологических станциях:
Партнеры нашего сайта:      
Пояснения к столбцам:
  • Ветер - указаны скорость ветра в м/с - средняя за 10 мин, порывы в срок и между сроками (в фигурных скобках) и направление, откуда дует ветер: С - северный,
  • СВ - северо-восточный, В - восточный, ЮВ - юго-восточный, Ю - южный, ЮЗ - юго-западный, З - западный, СЗ - северо-западный.
  • Видимость - горизонтальная дальность видимости в метрах или километрах. При видимости от 1 до 10 км при отсутствии осадков обычно наблюдается дымка, при ухудшении видимости до 1 км и менее - туман. В сухую погоду видимость может ухудшаться дымом, пылью или мглою.
  • Явления - указаны атмосферные явления, наблюдавшиеся в срок или в последний час перед сроком; фигурными скобками обозначены явления, наблюдавшиеся между сроками (за 1-3 часа до срока); квадратными скобками обозначены град или гололедные отложения с указанием их диаметра в мм.
  • Облачность - указаны через наклонную черту общая и нижняя облачность в баллах и высота нижней границы облаков в метрах; квадратными скобками обозначены формы облаков: Ci - перистые, Cs - перисто-слоистые, Cc - перисто-кучевые, Ac - высококучевые, As - высокослоистые, Sc - слоисто-кучевые, Ns - слоисто-дождевые, Cu - кучевые, Cb - кучево-дождевые. Подробнее классификацию облаков см. в Атласе облаков (PDF).
  • T - Температура воздуха - температура, измеренная на высоте 2 м над землей.
  • Td - Температура точки росы - температура, при понижении до которой содержащийся в воздухе водяной пар достигнет насыщения.
  • f - Относительная влажность воздуха - влажноcть воздуха, измеренная на высоте 2 м над землей.
  • Te - Эффективная температура - температура, которую ощущает одетый по сезону человек в тени. Характеристика душности погоды. При расчете учитывается влияние влажности воздуха и скорости ветра на теплоощущения человека.
  • Tes - Эффективная температура на солнце - температура, которую ощущает человек, с поправкой на солнечный нагрев. Характеристика знойности погоды. Зависит от высоты солнца над горизонтом, облачности и скорости ветра. Ночью, в пасмурную погоду, а также при ветре 12 м/с и более поправка равна нулю.
  • P - Атмосферное давление - приведенное к уровню моря атмосферное давление.
  • Po - Атмосферное давление - измеренное на уровне метеостанции атмосферное давление.
  • Tmin - Минимальная температура - минимум температуры воздуха на высоте 2 м над землей.
  • Tmax - Максимальная температура - максимум температуры воздуха на высоте 2 м над землей.
  • R - Количество осадков - Количество выпавших осадков за период времени, мм. При наведении курсора мыши на число - период времени, за который выпало указанное количество осадков.
  • R24 - Количество осадков - Количество выпавших осадков за 24 часа, мм.
  • S - Снежный покров - Высота снежного покрова, см. При наведении курсора мыши на число - состояние снежного покрова и степень покрытия местности в баллах.